Location: Newark
(42.7133°N, 87.7910°W)
Time: 04:39:40
(UTC+00:00)

A-11 Canister half - Pass Details

Date: 23 September 2019
Orbit: 1527 x 1682 km, 47.3° (Epoch: 17 October)

Event Time Altitude Azimuth Distance (km) Brightness Sun altitude
Exits shadow 09:15:58 43° 222° (SW) 2,052 9.2 -26.2°
Maximum altitude 09:19:32 74° 149° (SSE) 1,607 9.0 -25.6°
Drops below altitude 10° 09:29:07 10° 67° (ENE) 3,804 12.2 -24.0°
Sets 09:32:15 0° 65° (ENE) 4,812 13.1 -23.5°
